Wind_Speed
6 6 6 6 6 5 5 5 5 5 5 5 5 4 5 5 6 6 6 6 6 7 7 7 7 6 6 6 6 5 5 6 5 6 7 6 6 6 6 6 5 5 4
7 7 7 7 6 6 6 6 5 5 5 4 4 5 5 6 6 7 7 7 7 7 8 8 8 7 7 7 6 6 6 7 7 7 7 7 7 8 8 7 6 5 5
8 8 8 8 7 7 6 6 6 6 6 5 4 4 6 6 7 7 7 8 8 9 9 9 9 9 9 8 8 7 7 8 8 8 8 8 8 9 9 8 8 7 6
9 9 9 9 8 7 7 7 7 6 6 6 6 5 6 6 7 7 8 8 8 9 9 10 10 11 11 10 9 9 9 9 9 9 9 9 9 9 9 9 9 8 8
9 9 9 8 8 8 8 8 8 7 7 7 7 7 7 7 8 8 8 8 8 9 9 10 10 11 11 11 11 10 10 10 10 10 10 10 11 10 10 10 10 10 9
9 9 9 8 9 9 9 9 9 8 8 8 8 8 8 9 9 9 9 9 9 10 10 11 11 11 11 11 11 11 11 11 11 11 10 11 11 12 11 11 11 11 11
9 9 9 8 8 8 8 9 8 8 8 8 8 9 9 9 9 9 9 9 9 10 11 11 11 11 11 11 11 11 11 11 11 11 11 11 12 12 12 12 12 12 12
9 9 8 8 8 7 8 8 8 8 8 8 8 8 9 9 10 10 10 9 9 10 10 11 11 11 11 11 11 11 11 12 11 11 11 11 12 13 13 12 13 13 13
9 8 8 8 8 8 7 8 8 8 8 7 7 8 8 9 9 9 10 9 10 10 10 11 11 12 12 12 12 12 11 12 12 12 12 12 12 12 12 13 13 13 13
7 8 8 8 8 8 7 7 7 8 8 8 8 8 8 7 8 8 9 10 10 11 11 12 12 12 13 13 13 13 13 13 13 13 12 13 13 12 13 14 14 13 13
6 6 7 7 7 7 7 7 7 7 7 7 7 8 7 7 7 8 9 10 10 11 11 12 13 13 13 13 13 13 13 14 14 13 13 13 13 13 14 14 13 12 12
6 6 6 6 6 7 7 8 7 7 7 7 7 8 8 8 8 8 9 10 11 11 12 12 13 13 13 13 13 13 13 13 14 13 13 13 13 14 13 13 12 12 12
6 6 6 7 7 7 7 7 7 8 8 8 7 8 8 9 9 9 10 11 11 12 12 12 13 13 13 13 13 13 13 13 13 13 13 12 13 13 13 13 12 12 12
6 6 6 7 7 7 7 7 7 8 8 8 7 7 8 9 9 9 10 10 11 11 12 12 12 13 13 13 14 13 13 13 13 13 13 13 13 13 13 14 14 13 13
7 7 7 7 7 7 7 7 8 8 8 8 8 8 8 9 10 10 10 10 11 11 12 12 12 13 13 13 13 13 13 13 13 13 13 13 13 14 14 14 15 14 14
8 7 8 8 8 7 7 8 8 8 8 8 8 8 8 8 9 10 10 10 11 11 11 11 11 12 12 12 13 14 14 12 13 14 14 14 14 14 14 14 15 15 15
8 8 8 8 8 8 7 7 8 8 8 8 8 8 8 8 9 10 10 10 11 11 11 11 11 11 11 11 12 14 14 14 14 13 14 14 14 14 14 15 15 14 14
8 8 9 9 9 8 8 8 8 8 8 8 9 9 9 9 10 10 10 10 11 10 10 10 10 10 10 11 12 12 13 14 14 14 14 14 15 15 15 15 15 15 15
10 10 10 10 10 9 9 9 9 9 9 9 9 10 11 11 11 11 10 11 10 10 10 10 10 10 10 11 11 12 13 13 13 12 13 13 14 15 15 15 15 15 15
11 11 10 10 10 10 10 10 10 10 10 10 10 10 11 12 12 13 13 12 11 11 11 11 11 11 11 11 11 12 12 13 13 12 12 13 13 14 15 15 16 16 15
11 12 11 11 11 11 11 11 11 11 11 11 11 12 12 12 13 13 14 13 13 12 12 12 12 12 12 12 11 11 12 12 12 13 13 13 14 14 14 15 15 15 15
12 13 13 13 13 12 12 12 12 12 12 12 13 13 13 13 13 13 13 13 14 14 13 13 13 13 13 13 12 12 12 13 13 14 14 14 15 15 15 15 15 15 16
13 13 13 13 13 13 13 13 13 13 13 14 14 14 14 14 14 14 14 14 14 14 14 14 14 14 13 13 13 13 14 14 14 14 15 15 15 15 15 16 16 15 16
13 13 13 14 14 13 13 14 14 14 14 14 15 15 14 14 15 15 15 15 15 15 14 14 14 13 13 13 14 14 14 15 15 15 15 15 15 15 15 16 16 16 16
14 14 13 14 14 14 14 14 15 15 15 15 16 16 16 16 16 16 16 16 16 15 15 14 14 14 14 14 14 14 14 14 15 15 15 15 15 15 16 16 17 17 17
13 13 14 14 14 15 15 15 15 15 16 16 16 17 17 17 17 17 17 17 16 16 16 15 15 15 14 14 14 14 14 14 15 15 15 15 15 15 15 15 15 16 17
Wind_Direction
272 274 275 278 290 298 297 295 287 284 288 284 270 256 247 245 246 243 235 233 232 233 235 235 231 230 231 237 239 242 233 227 231 224 223 216 214 217 218 216 210 205 212
268 270 275 276 281 292 291 291 288 288 290 283 274 269 261 254 253 251 236 237 237 239 241 240 240 242 243 244 245 244 232 231 232 228 226 227 227 225 218 219 221 219 224
270 271 274 276 279 284 283 279 282 289 292 283 271 269 269 264 256 247 242 240 241 243 245 245 244 246 246 248 251 248 237 236 233 231 228 229 226 222 222 226 229 235 236
270 271 271 274 276 278 277 278 277 280 285 286 283 278 269 265 260 248 244 243 245 246 248 249 247 247 247 249 251 248 245 243 240 237 234 233 230 228 230 233 237 241 239
269 269 271 276 278 278 278 278 277 278 279 281 282 282 276 269 267 259 255 254 254 257 257 257 253 250 250 251 249 249 249 248 246 242 239 237 235 235 235 239 244 247 244
268 269 271 275 278 280 280 280 278 276 277 278 281 283 282 276 270 261 259 261 261 261 261 258 256 253 252 251 251 250 249 248 247 245 243 242 239 239 240 244 249 253 248
268 269 270 272 275 276 277 279 276 275 275 280 281 283 283 279 274 269 265 264 264 265 264 260 258 255 255 254 255 254 251 248 247 246 246 244 242 244 247 250 252 253 250
268 270 271 271 269 270 274 274 275 277 278 279 281 284 289 289 275 266 263 264 265 267 267 264 263 261 260 261 258 255 253 251 249 247 246 246 246 248 248 252 253 254 248
270 268 270 272 269 268 272 273 274 275 281 286 290 295 300 296 283 267 265 266 267 269 270 266 262 260 259 261 259 258 257 255 252 247 248 251 247 247 246 248 254 257 251
272 270 268 270 272 271 274 278 280 283 290 293 298 299 300 299 287 270 268 269 269 271 271 269 263 261 260 260 259 256 257 257 256 254 254 253 251 250 249 251 255 254 250
273 282 285 282 283 283 287 291 294 299 299 299 301 303 305 303 289 279 276 275 273 272 272 268 264 263 263 262 260 258 258 257 256 256 256 257 255 253 254 254 255 258 254
277 283 288 292 289 285 287 291 295 298 299 303 302 303 305 305 298 290 285 282 279 276 272 270 267 265 266 264 264 262 258 255 255 255 255 256 255 254 254 254 257 257 256
285 284 288 290 290 292 290 294 297 299 298 297 298 302 304 305 299 295 291 287 284 281 279 276 272 271 270 265 264 263 259 256 255 255 254 255 254 252 252 253 256 256 255
287 287 287 291 292 292 293 296 299 299 298 295 297 299 302 301 300 299 295 292 288 286 282 279 276 273 269 264 261 258 258 256 256 253 251 251 251 251 253 253 254 255 256
284 288 287 291 297 297 292 294 296 296 300 298 299 302 300 301 301 302 301 298 294 292 291 286 279 276 271 263 258 256 255 253 255 253 252 251 252 255 256 257 255 256 257
282 286 290 291 295 298 298 298 297 294 298 301 301 305 306 306 305 303 303 300 297 294 292 292 289 286 276 266 260 258 255 254 251 252 254 255 255 255 255 256 255 255 257
279 284 287 289 293 296 296 297 296 297 299 300 302 304 308 311 312 309 305 302 300 297 293 290 290 287 281 273 265 261 260 258 258 257 254 254 253 252 254 255 251 254 257
280 284 287 287 289 291 292 293 293 295 298 299 300 303 305 309 313 314 310 306 304 302 296 291 289 287 282 276 271 266 262 262 261 262 260 258 256 254 255 256 255 255 257
280 283 285 286 288 288 289 289 290 293 296 298 299 301 301 305 307 309 309 309 306 303 298 290 287 286 285 280 274 269 265 266 264 262 260 260 260 258 259 261 263 256 255
280 283 284 285 288 289 289 290 289 290 293 296 299 302 303 304 305 307 307 305 303 304 301 294 288 285 284 284 279 273 267 266 266 265 264 264 264 265 266 268 268 261 258
279 281 282 283 284 287 288 287 288 289 290 292 294 298 301 304 304 305 305 304 301 302 303 300 293 287 285 283 281 276 271 270 268 265 265 266 265 265 268 270 269 264 259
279 279 279 282 284 286 287 287 286 286 287 289 293 296 298 301 302 301 301 301 302 303 301 298 296 293 290 288 284 276 273 273 270 267 265 267 268 267 267 269 270 268 267
282 280 278 281 283 284 285 285 285 284 284 286 289 291 294 296 298 298 298 298 299 300 299 296 294 293 291 288 284 280 276 273 272 269 267 267 268 268 269 270 270 269 270
283 279 278 280 281 282 285 285 284 283 283 284 287 289 291 293 296 296 296 296 295 296 297 295 292 291 290 289 286 283 280 275 274 271 269 268 269 268 269 270 270 271 270
282 280 279 280 280 281 283 284 283 282 281 282 284 286 289 291 294 295 295 296 296 294 293 292 291 289 287 285 284 284 282 279 277 275 272 272 273 272 271 272 271 272 273
281 281 283 281 281 282 283 283 282 280 280 282 284 285 287 290 292 293 294 294 293 292 291 289 289 287 286 284 282 281 281 279 277 277 277 276 276 277 278 279 278 278 276
Height
5857 5857 5857 5857 5857 5858 5857 5857 5857 5857 5857 5856 5857 5857 5857 5857 5857 5857 5857 5858 5859 5860 5860 5861 5862 5862 5863 5864 5864 5864 5865 5865 5866 5867 5868 5869 5870 5870 5871 5872 5872 5873 5874
5856 5856 5856 5857 5857 5857 5857 5856 5856 5856 5856 5856 5856 5856 5856 5856 5856 5855 5856 5857 5858 5859 5860 5860 5861 5862 5862 5863 5863 5863 5864 5865 5865 5866 5867 5868 5869 5870 5870 5871 5872 5873 5874
5855 5855 5856 5855 5856 5856 5856 5856 5855 5855 5855 5855 5855 5855 5855 5855 5855 5855 5856 5856 5857 5858 5858 5859 5860 5861 5861 5862 5862 5863 5863 5864 5865 5865 5866 5867 5868 5869 5870 5871 5872 5872 5873
5854 5854 5854 5854 5854 5855 5855 5854 5854 5854 5854 5854 5854 5854 5854 5854 5854 5854 5855 5855 5856 5856 5857 5858 5858 5859 5860 5860 5861 5861 5862 5863 5863 5864 5865 5866 5867 5868 5869 5870 5871 5871 5872
5852 5853 5853 5853 5853 5853 5853 5853 5853 5853 5853 5853 5853 5853 5853 5852 5852 5853 5853 5854 5854 5855 5856 5856 5857 5857 5858 5859 5859 5860 5861 5861 5862 5863 5864 5865 5866 5867 5868 5869 5869 5870 5871
5851 5851 5851 5851 5852 5852 5852 5852 5852 5852 5852 5852 5852 5851 5851 5851 5850 5851 5852 5852 5853 5854 5854 5855 5855 5856 5857 5857 5858 5858 5859 5860 5860 5861 5863 5863 5864 5865 5866 5867 5868 5868 5869
5849 5850 5850 5850 5850 5850 5850 5850 5850 5850 5850 5850 5850 5850 5849 5848 5848 5848 5849 5850 5851 5852 5853 5853 5854 5854 5855 5856 5856 5857 5858 5858 5859 5860 5861 5861 5862 5863 5864 5865 5866 5866 5867
5848 5848 5848 5849 5849 5849 5849 5849 5849 5849 5849 5848 5848 5848 5847 5844 5843 5844 5846 5848 5849 5850 5851 5851 5852 5853 5853 5854 5854 5855 5856 5856 5856 5858 5859 5859 5860 5861 5862 5863 5863 5864 5865
5847 5847 5847 5847 5847 5847 5847 5847 5847 5847 5847 5847 5847 5846 5844 5841 5838 5840 5844 5846 5847 5848 5848 5849 5850 5851 5851 5852 5852 5853 5854 5854 5855 5856 5857 5857 5858 5859 5860 5860 5861 5862 5862
5846 5846 5846 5846 5846 5846 5846 5846 5846 5846 5846 5846 5845 5845 5843 5840 5838 5840 5843 5844 5845 5846 5846 5847 5848 5848 5849 5850 5850 5851 5852 5852 5853 5854 5855 5855 5856 5857 5857 5858 5858 5859 5860
5845 5845 5845 5845 5845 5845 5845 5845 5845 5845 5845 5844 5844 5844 5843 5841 5840 5841 5842 5843 5844 5844 5844 5845 5845 5846 5846 5847 5848 5849 5849 5850 5851 5852 5852 5853 5854 5854 5855 5855 5855 5857 5858
5844 5844 5844 5844 5844 5844 5844 5844 5844 5844 5844 5843 5843 5843 5842 5842 5841 5841 5842 5842 5842 5842 5842 5843 5843 5844 5844 5845 5845 5846 5846 5847 5848 5849 5850 5851 5851 5852 5852 5853 5853 5854 5855
5843 5843 5843 5843 5843 5843 5843 5843 5843 5843 5843 5842 5842 5842 5841 5841 5841 5840 5840 5840 5840 5840 5840 5840 5841 5841 5842 5842 5843 5843 5844 5845 5846 5846 5847 5848 5848 5849 5850 5851 5851 5852 5853
5842 5842 5842 5842 5842 5842 5842 5842 5842 5842 5841 5841 5841 5841 5840 5840 5840 5839 5839 5839 5838 5838 5838 5838 5838 5839 5839 5840 5840 5841 5841 5842 5843 5843 5844 5845 5846 5847 5847 5848 5849 5849 5850
5841 5841 5842 5841 5841 5841 5841 5841 5841 5841 5840 5840 5840 5840 5839 5839 5838 5838 5837 5837 5836 5836 5836 5836 5836 5836 5837 5837 5837 5838 5839 5839 5840 5841 5841 5842 5843 5844 5844 5845 5846 5846 5847
5840 5840 5840 5840 5840 5840 5840 5840 5840 5839 5839 5839 5839 5838 5838 5837 5837 5836 5836 5835 5834 5834 5833 5833 5834 5834 5834 5834 5835 5835 5836 5836 5837 5838 5838 5839 5840 5841 5842 5842 5842 5843 5844
5839 5839 5839 5839 5839 5839 5839 5839 5838 5838 5838 5838 5838 5837 5837 5836 5835 5835 5834 5833 5833 5832 5831 5831 5831 5831 5831 5832 5832 5832 5833 5834 5834 5834 5835 5836 5837 5838 5839 5839 5839 5840 5841
5837 5837 5837 5837 5837 5837 5837 5837 5837 5837 5837 5836 5836 5836 5835 5835 5834 5833 5832 5832 5831 5830 5830 5829 5829 5829 5829 5829 5829 5830 5830 5831 5831 5831 5832 5833 5834 5835 5836 5836 5836 5836 5837
5835 5835 5835 5835 5835 5835 5835 5835 5835 5835 5835 5835 5835 5834 5834 5833 5832 5831 5831 5830 5829 5828 5828 5827 5827 5827 5827 5827 5827 5827 5827 5828 5828 5829 5829 5830 5831 5832 5833 5833 5833 5833 5834
5833 5833 5833 5833 5833 5833 5833 5833 5833 5833 5833 5833 5833 5832 5831 5831 5830 5829 5828 5828 5827 5826 5826 5825 5825 5824 5824 5824 5824 5824 5824 5825 5825 5826 5827 5828 5828 5829 5829 5830 5830 5830 5830
5830 5831 5831 5831 5831 5831 5831 5831 5831 5831 5831 5831 5830 5830 5829 5828 5828 5827 5826 5825 5825 5824 5824 5823 5823 5822 5822 5822 5822 5822 5822 5822 5822 5823 5824 5825 5825 5826 5826 5826 5827 5827 5827
5828 5828 5828 5828 5828 5828 5828 5828 5828 5828 5828 5828 5828 5827 5827 5826 5825 5825 5824 5823 5822 5822 5821 5821 5820 5820 5819 5819 5819 5819 5819 5820 5820 5820 5821 5821 5822 5822 5822 5823 5823 5823 5823
5825 5825 5825 5825 5825 5825 5825 5825 5825 5825 5825 5825 5825 5825 5824 5823 5823 5822 5821 5821 5820 5819 5818 5818 5817 5817 5816 5816 5816 5816 5816 5816 5816 5817 5817 5818 5818 5818 5819 5819 5819 5820 5820
5822 5822 5822 5822 5822 5822 5822 5822 5822 5822 5822 5822 5822 5821 5821 5820 5820 5819 5818 5817 5817 5816 5815 5815 5814 5814 5813 5813 5813 5813 5813 5813 5813 5814 5814 5814 5814 5815 5815 5815 5816 5816 5816
5819 5818 5818 5819 5819 5819 5818 5818 5818 5818 5818 5818 5818 5818 5817 5817 5816 5815 5815 5814 5813 5813 5812 5811 5811 5811 5810 5810 5810 5809 5809 5809 5810 5810 5811 5811 5811 5811 5811 5812 5812 5812 5812
5816 5816 5815 5816 5816 5815 5815 5815 5815 5815 5815 5815 5814 5814 5814 5813 5812 5812 5811 5810 5810 5809 5808 5808 5807 5807 5807 5806 5806 5806 5806 5806 5806 5806 5807 5807 5807 5807 5807 5807 5808 5808 5808